Weather History for Clearfield, PA

Change the Weather History Date:

Wednesday, October 5, 2011

  Actual Average (KDUJ) Record (KDUJ)
Temperature  
Mean Temperature 57 °F 52 °F  
Max Temperature 71 °F 62 °F 83 °F (2007)
Min Temperature 44 °F 43 °F 28 °F (1965)
Degree Days  
Heating Degree Days 8 13  
Month to date heating degree days 60  
Since 1 July heating degree days 306  
Cooling Degree Days 0 0  
Month to date cooling degree days 0  
Year to date cooling degree days 360  
Growing Degree Days 7 (Base 50)    
Moisture  
Dew Point 46 °F    
Average Humidity 80    
Maximum Humidity 100    
Minimum Humidity 39    
Precipitation  
Precipitation 0.01 in 0.11 in 6.94 in (1997)
Month to date precipitation 0.53  
Sea Level Pressure  
Sea Level Pressure 30.25 in    
Wind  
Wind Speed 6 mph (West)    
Max Wind Speed 10 mph    
Max Gust Speed -    
Visibility 9 miles    
Events      
T = Trace of Precipitation, MM = Missing Value Source: NWS Daily Summary

Daily Weather History Graph

Daily Weather History Graph

Search for Another Location

Airport:

Trip Planner

Search our weather history database for the weather conditions in past years. The results will help you decide how hot, cold, wet, or windy it might be!

Date:

Astronomy

Oct. 05, 2011 Rise Set
Actual Time 7:14 AM EDT 6:49 PM EDT
Civil Twilight 6:46 AM EDT 7:16 PM EDT
Nautical Twilight 6:14 AM EDT 7:48 PM EDT
Astronomical Twilight 5:42 AM EDT 8:20 PM EDT
Moon 3:31 PM EDT (10/5) 12:55 AM EDT (10/5)
Length of Visible Light 12h 30m
Length of Day
11h 35m
Waxing Gibbous, 66% of the Moon is Illuminated
Oct 5
Waxing Gibbous
Oct 11
Full
Oct 19
Last Quarter
Oct 26
New
Nov 2
First Quarter

Hourly Weather History & Observations

Time (EDT) Temp. Windchill Dew Point Humidity Pressure Visibility Wind Dir Wind Speed Gust Speed Precip Events Conditions
12:08 AM 46.4 °F 43.5 °F 46.4 °F 100% 30.20 in 2.0 mi SSW 5.8 mph - N/A   Mostly Cloudy
12:16 AM 46.4 °F 43.5 °F 46.4 °F 100% 30.20 in 7.0 mi SSW 5.8 mph - N/A   Mostly Cloudy
12:24 AM 46.4 °F 43.5 °F 46.4 °F 100% 30.20 in 10.0 mi SW 5.8 mph - N/A   Scattered Clouds
12:55 AM 46.9 °F - 46.0 °F 97% 30.21 in 10.0 mi SSW 6.9 mph - N/A   Unknown
1:54 AM 46.9 °F - 45.0 °F 93% 30.21 in 10.0 mi SW 6.9 mph - N/A   Clear
3:54 AM 46.9 °F - 45.0 °F 93% 30.22 in 10.0 mi SSW 6.9 mph - N/A   Clear
4:54 AM 46.9 °F - 45.0 °F 93% 30.22 in 10.0 mi SW 8.1 mph - N/A   Clear
5:54 AM 46.0 °F 42.5 °F 44.1 °F 93% 30.24 in 10.0 mi SSW 6.9 mph - N/A   Clear
6:54 AM 45.0 °F 41.8 °F 44.1 °F 97% 30.25 in 9.0 mi WSW 5.8 mph - 0.01 in   Clear
7:12 AM 44.6 °F 42.2 °F 44.6 °F 100% 30.25 in 7.0 mi SW 4.6 mph - N/A   Scattered Clouds
7:29 AM 44.6 °F 41.4 °F 44.6 °F 100% 30.25 in 4.0 mi SW 5.8 mph - N/A   Mostly Cloudy
7:54 AM 45.0 °F 41.8 °F 44.1 °F 97% 30.27 in 3.0 mi Variable 5.8 mph - N/A   Overcast
9:31 AM 48.2 °F - 46.4 °F 93% 30.27 in 9.0 mi SSW 8.1 mph - N/A   Scattered Clouds
10:54 AM 57.9 °F - 46.9 °F 67% 30.29 in 10.0 mi Calm Calm - N/A   Clear
11:54 AM 63.0 °F - 46.9 °F 56% 30.27 in 10.0 mi NNW 10.4 mph - N/A   Clear
12:54 PM 64.9 °F - 48.0 °F 54% 30.26 in 10.0 mi West 8.1 mph - N/A   Clear
1:54 PM 69.1 °F - 45.0 °F 42% 30.24 in 10.0 mi NW 8.1 mph - N/A   Clear
2:54 PM 70.0 °F - 44.1 °F 39% 30.22 in 10.0 mi NW 3.5 mph - N/A   Clear
3:54 PM 70.0 °F - 44.1 °F 39% 30.22 in 10.0 mi North 5.8 mph - N/A   Clear
5:54 PM 66.9 °F - 46.0 °F 47% 30.22 in 10.0 mi NW 9.2 mph - N/A   Clear
6:54 PM 61.0 °F - 48.0 °F 62% 30.24 in 10.0 mi NNW 5.8 mph - N/A   Clear
7:54 PM 55.9 °F - 48.9 °F 77% 30.27 in 10.0 mi NNW 5.8 mph - N/A   Clear
9:54 PM 51.1 °F - 46.9 °F 86% 30.31 in 10.0 mi Calm Calm - N/A   Clear
10:54 PM 51.1 °F - 46.9 °F 86% 30.33 in 10.0 mi NE 4.6 mph - N/A   Clear
11:54 PM 50.0 °F - 45.0 °F 83% 30.35 in 10.0 mi ENE 6.9 mph - N/A   Clear